Regional Weather Roundup
Issued by NWS

Home | Current Version | Previous Version | Graphics & Text | Print | Product List | Glossary On
Versions: 1 2 3 4 5 6 7 8 9 10 11 12 13 14 15 16 17 18 19 20 21 22 23 24 25 26 27 28 29 30 31 32 33 34 35 36 37 38 39 40 41 42 43 44 45 46 47 48 49 50
000
ASUS43 KLSX 250110
RWRMO

WEATHER SUMMARY FOR MISSOURI
NATIONAL WEATHER SERVICE SPRINGFIELD MO
800 PM CDT THU MAY 24 2018

NOTE: "FAIR" INDICATES FEW OR NO CLOUDS BELOW 12,000 FEET WITH NO
       SIGNIFICANT WEATHER AND/OR OBSTRUCTIONS TO VISIBILITY.
       CURRENT SKY AND/OR WEATHER CONDITIONS ARE NOT AVAILABLE FOR
       CHILLICOTHE AND FARMINGTON.

MOZ001>031-035>038-043-044-053-054-250200-
...NORTHERN AND WESTERN MISSOURI...

CITY           SKY/WX    TMP DP  RH WIND       PRES   REMARKS
KANSAS CTY INT LGT RAIN  68  67  96 SW6       29.99F
KANSAS C DTWN  CLOUDY    73  63  70 SW8       29.98F
LEE`S SUMMIT   CLOUDY    73  64  73 SW7       30.01S
ST JOSEPH      CLOUDY    76  67  73 S8        29.98S
CHILLICOTHE      N/A     81  66  60 S7G16     29.99S
KIRKSVILLE     CLEAR     79  67  66 S5        30.01S

$$
MOZ066>068-077>081-088>096-101>105-250200-
...SOUTHWEST MISSOURI...

CITY           SKY/WX    TMP DP  RH WIND       PRES   REMARKS
SPRINGFIELD    CLOUDY    77  63  61 E3        30.04S
JOPLIN         LGT RAIN  75  69  81 E5        30.01F
BRANSON        CLOUDY    72  63  73 S6        30.06S

$$
MOZ032>034-039>042-045>050-055>058-069>072-250200-
...CENTRAL MISSOURI...

CITY           SKY/WX    TMP DP  RH WIND       PRES   REMARKS
COLUMBIA       MOCLDY    78  69  73 CALM      30.02S
JEFFERSON CITY CLOUDY    81  67  62 E3        30.01R
ROLLA          CLEAR     78  66  66 S3        30.05R
SEDALIA        CLOUDY    76  71  85 S5        30.02F
WHITEMAN AFB   MOCLDY    78  69  73 S5        29.97F
WARRENSBURG    CLOUDY    77  63  61 SW13G22   30.02R
OSAGE BEACH    MOCLDY    76  69  79 CALM      30.04R

$$
MOZ051-052-059>065-250200-
...EAST CENTRAL MISSOURI...

CITY           SKY/WX    TMP DP  RH WIND       PRES   REMARKS
ST LOUIS INTL  PTCLDY    83  62  49 SE9       30.02S
SPIRIT OF STL  PTCLDY    82  64  54 SE5       30.00F
ST CHARLES     CLEAR     82  63  52 SE9       30.00F

$$
MOZ072>076-082>087-097>100-106>115-250200-
...SOUTH CENTRAL AND SOUTHEAST MISSOURI...

CITY           SKY/WX    TMP DP  RH WIND       PRES   REMARKS
CAPE GIRARDEAU FAIR      80  65  59 E5        30.02R
FARMINGTON     CLEAR     79  65  62 SE5       30.05S
POPLAR BLUFF   MOCLDY    80  72  76 CALM      30.01S
WEST PLAINS    CLOUDY    76  67  73 SE7       30.07R

$$



USA.gov is the U.S. government's official web portal to all federal, state and local government web resources and services.